GEFSSE_con_prob3kmehi_306.txt.gz
EHI
6 7 8 7 5 5 4 2 1 0 0 1 3 5 6 6 6 4 4 4 3 2 2 2 1 1 1 1 1 2 2 1 0 0 0 0 0 1 2 2 1 1 1
7 7 8 7 6 5 4 2 0 1 1 2 3 4 6 6 6 4 3 3 2 1 1 1 1 2 2 1 2 2 1 0 0 0 0 0 0 0 1 1 0 0 1
5 6 7 7 7 6 5 2 1 1 2 3 3 4 5 6 5 4 2 2 1 0 0 0 1 2 2 2 1 1 0 0 0 0 0 0 0 1 2 1 0 0 0
2 4 6 8 6 6 6 4 1 2 3 4 3 3 4 5 5 4 1 0 0 0 0 0 0 1 1 1 0 0 0 0 0 0 0 0 0 1 1 1 0 0 0
0 2 5 7 5 5 6 5 3 3 3 3 3 3 2 3 4 3 1 0 0 0 0 0 0 0 0 0 0 0 0 0 0 0 0 0 0 0 0 0 0 0 0
0 0 2 4 4 4 4 4 4 4 3 2 2 1 1 2 2 2 0 0 0 0 0 0 1 1 0 0 0 0 0 0 0 0 0 0 0 0 0 0 0 0 0
0 0 1 2 3 3 3 3 4 4 3 2 2 2 2 2 2 1 0 0 0 0 0 1 2 2 1 0 0 1 1 1 1 0 0 0 0 1 1 0 0 1 1
0 1 1 1 2 3 4 3 3 3 3 3 3 4 4 4 4 2 1 1 1 1 1 1 3 3 2 1 1 2 3 2 1 0 0 0 1 3 3 1 0 0 0
1 2 2 1 2 3 4 4 4 4 3 3 4 5 6 7 6 4 2 2 2 2 2 3 3 3 2 1 1 3 4 3 1 0 0 1 3 5 4 1 0 0 0
1 1 2 1 1 1 2 4 5 4 4 3 5 7 9 8 7 4 3 3 4 4 3 3 4 5 4 3 3 4 4 3 2 1 1 3 5 6 5 4 2 1 1
2 1 1 1 0 0 0 2 3 3 3 3 4 7 8 6 4 4 3 4 5 6 5 5 6 8 7 6 4 4 2 2 2 1 3 6 8 9 9 8 6 5 4
2 2 1 1 0 0 0 0 1 1 3 3 3 4 3 2 2 2 2 3 5 7 7 7 7 8 8 5 2 1 1 1 1 2 4 8 10 11 13 13 11 9 8
1 2 2 1 1 1 1 1 1 1 2 2 2 1 0 0 1 1 1 1 3 4 5 5 5 5 4 2 0 0 0 1 1 3 6 9 10 11 13 16 15 12 11
0 1 1 1 1 2 2 2 2 1 1 1 2 2 1 0 0 0 0 0 1 1 2 3 2 1 1 0 0 0 1 1 2 4 7 10 11 12 13 15 15 13 13
0 0 0 0 1 1 2 2 2 1 1 1 3 4 4 2 1 1 0 0 0 0 1 2 1 1 0 0 0 0 1 3 4 5 6 10 13 14 13 14 13 11 11
1 1 1 1 1 1 1 1 1 1 1 2 3 5 6 5 4 3 1 1 1 0 1 2 2 2 1 1 1 1 2 4 5 6 6 8 12 13 12 13 12 10 10
3 3 3 2 3 3 3 2 2 2 2 2 2 3 5 6 5 4 3 2 2 1 1 2 2 3 3 2 2 3 3 4 5 6 5 5 6 8 10 13 13 11 9
6 5 4 3 4 5 5 4 3 2 2 2 2 3 4 5 5 5 5 4 3 1 1 2 2 3 3 2 2 2 2 2 2 4 5 4 3 4 6 12 14 12 11
6 5 4 4 6 7 6 5 4 3 2 2 2 3 4 5 6 7 6 5 4 2 1 1 1 2 1 1 1 1 1 1 2 3 5 5 4 4 5 9 12 12 12
4 4 4 5 7 7 7 6 5 4 5 4 3 3 5 6 7 7 6 4 3 2 2 1 1 0 0 1 1 1 2 3 3 3 5 5 5 5 6 7 8 9 10
4 5 6 8 8 7 7 7 6 6 6 5 4 3 4 6 6 6 4 3 2 1 1 1 0 1 1 2 2 2 3 3 3 3 4 4 4 6 7 7 6 6 7
6 6 8 9 9 8 7 7 8 7 5 5 4 4 4 4 5 4 3 2 1 1 1 1 1 2 3 3 3 4 4 3 1 1 2 3 3 4 6 7 5 5 5
7 8 9 10 10 7 6 7 8 8 7 6 6 5 4 4 4 3 3 2 2 2 2 2 3 3 3 3 4 4 4 3 1 1 2 3 3 3 4 4 4 4 4
9 10 11 11 9 7 6 7 8 8 8 8 7 6 5 4 3 4 4 4 3 3 3 3 4 5 4 3 3 4 4 3 2 2 2 3 3 4 3 3 2 3 3
14 14 14 13 11 9 9 9 8 7 7 6 7 6 5 4 4 4 6 7 5 4 3 3 4 5 5 4 3 3 3 3 3 3 3 3 3 3 3 2 3 3 2
19 18 16 15 14 12 10 9 8 6 5 5 6 6 5 4 4 4 6 7 6 4 3 4 4 4 4 4 3 3 3 3 3 3 3 2 1 2 1 2 3 3 3

GEFSSE_con_prob3kmehi_312.txt.gz
EHI
0 2 6 6 6 6 6 3 1 2 2 1 1 1 1 0 1 1 1 1 1 1 1 4 4 2 1 1 0 0 0 0 0 0 0 0 0 0 0 0 0 0 0
1 2 5 5 5 5 5 3 2 3 3 3 2 2 1 1 2 3 3 3 2 1 2 3 3 2 0 0 0 0 0 0 0 0 0 1 1 0 0 0 0 0 0
2 3 4 4 4 3 4 4 4 4 4 5 6 5 4 3 3 4 4 4 3 2 2 2 2 1 0 0 0 0 0 0 1 1 1 1 1 0 0 0 0 0 0
2 3 3 4 3 3 4 5 6 4 4 6 7 7 6 4 4 5 4 4 3 3 2 1 1 0 0 0 0 1 1 1 1 1 1 1 1 0 0 0 0 0 0
1 2 3 3 3 3 4 5 5 4 4 5 6 7 6 4 3 3 3 3 3 3 2 0 0 0 0 0 0 1 1 1 1 0 0 0 0 0 0 0 0 0 0
0 1 2 3 3 3 2 3 3 3 2 4 5 5 5 3 1 1 3 3 2 2 1 0 0 0 0 1 0 0 1 1 0 0 0 0 0 0 0 0 0 0 0
0 0 1 3 3 3 1 1 1 1 1 2 3 3 3 3 1 1 2 2 1 0 0 0 0 0 0 0 0 0 1 1 0 0 0 0 0 0 0 0 0 0 0
0 0 1 2 3 3 2 1 0 0 1 1 1 2 2 2 2 1 1 1 0 0 0 0 0 1 1 1 1 1 2 2 1 0 1 1 1 0 0 0 0 0 0
0 1 2 2 1 2 2 1 0 0 0 0 0 0 1 2 3 1 1 0 0 0 0 0 0 0 1 2 2 2 2 2 1 0 1 1 1 0 0 0 0 0 0
1 2 3 2 1 1 1 0 0 0 0 0 0 0 1 2 2 2 2 1 0 0 0 0 0 0 0 1 1 2 2 1 1 0 0 0 0 0 0 0 0 0 0
2 2 2 2 1 0 0 0 0 0 0 0 0 0 0 1 1 2 2 1 0 0 0 0 0 0 0 0 0 1 1 1 0 0 0 0 0 1 1 1 0 0 0
1 1 1 1 1 0 0 0 0 0 0 0 0 0 0 0 0 1 1 0 0 0 0 0 0 1 1 0 0 0 0 0 0 0 0 0 1 2 2 1 0 0 0
0 0 0 0 0 0 0 0 0 0 0 0 0 0 0 0 0 0 0 0 0 0 0 0 0 1 1 0 0 0 0 0 0 1 2 2 1 1 1 1 0 0 0
0 0 0 0 0 0 0 0 0 0 0 0 0 0 0 0 0 0 0 0 0 0 0 0 0 1 1 0 0 0 0 1 1 2 3 3 1 0 0 1 1 1 1
0 0 0 0 0 0 0 0 0 0 0 0 0 0 0 0 0 0 0 0 0 0 0 0 0 0 0 0 0 0 0 1 3 3 4 3 1 0 0 0 1 2 3
0 0 0 0 0 0 0 0 0 0 0 0 0 0 0 0 0 0 0 0 0 0 0 0 1 0 0 0 0 0 0 1 3 4 4 3 2 1 1 1 2 4 5
0 0 0 0 0 0 0 0 0 0 0 0 0 0 0 0 0 0 1 1 1 0 0 0 0 0 0 0 0 0 0 1 3 4 4 4 3 3 3 4 4 5 6
0 0 0 0 0 0 0 0 0 1 1 0 0 0 0 0 1 1 2 2 2 1 0 0 0 0 0 0 0 0 0 1 2 3 4 5 5 5 5 5 4 5 5
0 0 0 0 0 0 0 1 1 2 2 1 0 1 1 1 2 2 3 3 2 1 0 0 0 0 1 1 1 0 1 1 2 4 6 7 7 7 6 4 3 3 3
1 1 1 0 0 1 1 3 3 3 2 1 1 2 3 3 2 3 3 3 1 0 0 0 1 1 2 2 2 1 1 2 4 6 6 6 6 5 5 4 2 1 2
1 2 2 1 1 2 3 4 4 4 3 2 2 3 3 3 2 2 3 2 1 0 0 1 2 3 3 4 4 3 3 4 6 6 6 6 4 3 4 4 3 2 2
2 2 2 1 1 2 3 4 4 3 2 2 2 2 2 2 2 3 3 2 1 1 0 1 2 2 3 4 5 5 4 5 6 6 6 4 3 3 2 2 2 2 2
2 2 2 1 1 1 1 2 2 2 1 1 1 0 0 1 3 4 4 2 0 0 0 0 1 1 1 2 3 4 4 4 4 4 3 2 1 1 1 0 1 1 1
1 1 1 1 0 0 0 1 1 1 0 0 0 0 0 0 2 3 2 1 0 0 0 0 0 0 0 1 2 2 2 2 1 1 1 0 0 0 0 0 1 1 1
0 0 0 0 0 0 0 0 0 0 0 0 0 0 0 0 0 1 1 0 0 0 0 0 0 1 0 0 1 1 1 1 0 0 0 0 0 0 0 0 1 2 3
0 0 0 0 0 0 0 0 0 0 0 0 0 0 0 0 0 0 0 0 0 0 0 0 0 1 0 0 0 0 0 0 0 0 0 0 0 0 0 0 1 2 3

GEFSSE_con_prob3kmehi_318.txt.gz
EHI
0 2 4 5 4 3 2 1 0 0 0 0 0 0 0 0 0 0 0 0 0 1 2 2 1 1 2 1 0 0 0 0 0 0 0 0 0 0 0 1 1 1 2
0 1 3 3 3 2 1 0 0 0 0 0 0 0 0 0 0 0 0 0 0 0 1 1 0 1 1 1 0 0 0 0 0 0 0 0 0 0 1 1 2 2 2
0 0 1 1 1 1 0 0 0 0 0 0 0 0 0 0 1 1 0 0 0 0 0 0 0 0 1 1 0 0 0 0 0 0 0 0 1 1 1 1 2 2 2
0 0 0 0 0 0 0 0 1 1 1 1 0 1 1 1 2 2 1 1 0 0 0 0 0 0 0 1 0 0 0 0 0 0 0 0 1 2 1 0 1 1 1
0 0 0 1 0 0 0 0 1 2 2 2 2 2 2 3 4 3 2 1 0 0 0 0 0 0 0 0 0 0 0 0 0 0 0 0 1 2 2 1 0 0 0
0 0 0 0 0 0 0 0 1 1 2 2 3 2 3 4 5 4 1 0 0 0 0 0 0 0 0 0 0 0 0 0 0 0 0 0 1 3 3 2 0 0 0
0 0 0 0 0 0 0 0 0 0 1 2 2 1 1 3 4 2 0 0 0 0 0 0 0 0 0 0 0 0 0 0 0 0 0 1 2 3 3 1 0 0 0
0 0 0 0 0 0 0 0 0 0 0 1 1 0 0 1 2 1 0 0 0 1 1 1 0 0 0 0 0 0 0 0 0 0 0 1 3 3 2 1 0 0 0
0 0 0 0 0 0 0 0 0 0 0 0 0 0 0 1 2 1 1 1 1 2 2 2 1 1 0 0 0 0 1 2 1 0 0 1 3 4 2 1 2 2 1
0 0 0 0 0 0 0 0 0 0 0 0 0 0 0 1 1 1 1 2 3 3 3 3 3 2 1 0 0 1 2 2 1 0 0 1 3 3 1 1 3 4 3
0 0 0 0 0 0 0 0 0 0 0 0 0 0 0 0 0 0 1 2 3 3 3 3 3 3 1 0 1 2 2 1 0 0 0 2 3 2 1 1 2 3 2
0 0 0 0 0 0 0 0 0 0 0 0 0 0 0 0 0 0 1 2 2 2 2 3 3 2 1 1 1 2 1 0 0 0 2 4 4 3 1 0 0 1 1
0 0 0 0 1 1 0 0 0 0 0 0 0 0 0 0 0 0 0 1 1 1 1 1 2 1 1 1 2 2 1 1 0 1 4 7 6 3 1 0 0 0 1
0 0 0 0 1 2 1 1 1 0 0 1 2 1 1 1 1 1 1 1 1 1 1 1 1 1 0 1 2 2 2 2 1 2 7 10 8 4 1 0 0 1 2
0 0 0 0 1 2 2 2 2 1 1 1 2 3 2 2 3 3 4 4 2 1 1 2 2 1 0 1 1 1 2 3 3 4 8 11 9 6 2 1 1 2 3
0 0 1 1 0 1 2 2 2 1 2 1 2 3 3 3 4 4 5 4 2 1 1 2 2 1 1 1 1 2 2 3 5 6 8 10 10 7 5 4 4 5 5
0 0 1 1 1 2 2 2 1 1 1 1 2 3 3 3 3 3 2 2 1 1 2 2 2 1 2 4 4 4 3 4 6 8 9 10 10 9 9 9 8 6 5
0 0 1 1 3 4 5 4 2 1 1 2 2 2 2 1 1 1 0 0 1 1 2 3 4 3 4 5 6 5 5 6 7 8 9 11 12 12 12 13 12 8 6
0 1 2 2 4 5 6 5 4 3 2 1 1 1 0 0 0 0 0 0 0 1 2 4 5 6 6 6 6 6 6 7 8 8 9 11 12 12 12 13 13 11 9
1 2 4 5 5 5 5 5 5 3 2 0 0 0 1 1 1 0 0 1 1 2 4 5 6 7 7 7 7 6 5 6 7 7 7 8 9 8 8 9 10 9 8
2 4 7 6 6 5 4 5 5 4 3 1 1 1 2 2 2 1 1 2 3 4 5 6 7 6 7 7 6 4 2 2 3 3 3 4 5 5 4 5 6 5 5
3 5 7 7 5 3 4 5 6 7 6 3 2 2 2 2 2 2 2 2 3 4 5 6 7 6 5 5 4 2 0 0 0 1 1 1 2 2 1 1 3 5 5
4 5 6 6 4 3 4 5 7 9 7 4 2 2 2 2 2 2 2 1 1 2 4 5 6 5 4 4 3 2 1 0 0 0 0 0 1 1 0 0 2 5 5
5 4 6 7 7 6 6 6 7 8 6 3 2 3 4 4 2 1 1 2 2 3 4 4 4 4 3 3 3 4 4 2 1 0 1 1 1 2 1 0 1 3 3
5 5 7 9 10 10 9 7 7 6 4 2 2 3 4 3 2 1 2 5 6 6 6 5 5 5 3 3 3 3 4 3 1 1 1 2 2 2 2 1 1 1 2
6 7 8 9 11 12 10 8 6 4 3 2 2 3 3 2 2 1 3 7 8 7 7 8 8 7 6 3 2 2 2 2 1 1 1 1 2 2 2 2 1 2 4

GEFSSE_con_prob3kmehi_324.txt.gz
EHI
5 6 6 4 3 1 0 0 0 0 1 1 1 0 1 2 3 3 3 3 3 3 2 2 2 1 0 1 2 2 3 4 5 4 2 2 2 4 4 2 1 2 3
5 6 5 4 3 2 1 0 0 0 0 0 0 0 1 2 3 4 4 4 3 3 1 1 1 0 0 1 2 1 1 2 3 3 2 2 3 6 6 4 3 3 3
4 4 5 4 3 3 2 1 0 0 0 0 0 0 1 2 3 4 5 4 3 2 1 0 0 0 0 1 1 0 0 0 1 1 2 2 3 6 7 6 4 3 3
2 3 3 3 3 3 3 2 1 0 0 0 0 0 1 3 3 4 5 3 1 1 0 0 0 0 0 0 0 0 0 0 0 1 1 1 2 4 6 6 4 2 2
2 3 4 4 3 3 3 3 1 0 0 0 0 0 1 3 4 3 4 3 1 0 0 0 0 0 0 0 0 0 0 0 0 1 0 0 1 4 6 6 4 1 1
2 3 5 4 3 3 3 2 1 0 0 0 0 0 1 3 3 3 4 3 1 0 0 0 0 0 0 0 0 0 0 0 0 0 0 0 2 6 8 7 5 2 0
3 3 4 4 3 2 2 1 1 0 0 0 0 0 1 2 3 4 4 3 2 1 1 0 0 0 0 1 1 1 1 1 1 1 1 1 4 7 9 8 6 3 1
5 2 2 3 2 1 1 0 0 0 0 0 0 0 1 2 3 3 4 3 2 2 1 1 1 1 1 2 2 3 5 5 4 3 4 3 5 9 9 8 7 4 2
4 1 1 2 1 0 0 0 0 0 0 0 0 1 2 3 3 3 3 3 3 3 3 2 3 3 3 4 4 5 8 9 6 4 4 5 7 10 9 8 7 4 1
1 1 2 3 1 1 1 1 1 1 1 1 0 1 2 3 3 3 3 3 4 4 4 4 5 6 7 8 9 9 10 10 6 3 4 7 10 10 9 8 6 4 2
0 1 3 4 2 2 2 3 2 2 3 2 2 1 1 1 2 3 4 5 5 4 4 5 7 8 9 10 12 13 11 8 5 4 6 10 12 11 9 8 6 3 2
0 1 3 4 3 3 4 4 2 4 6 5 5 5 2 1 1 2 5 6 5 4 5 7 8 8 9 9 11 12 9 7 5 5 8 13 14 12 9 8 6 3 2
0 0 1 3 4 4 4 4 3 5 8 9 8 8 6 3 2 2 5 7 6 6 8 10 9 8 7 7 8 8 7 7 6 5 9 14 15 11 8 7 6 4 3
0 0 1 3 4 5 5 5 4 5 7 9 9 9 8 6 3 2 5 9 9 9 14 15 12 9 7 7 6 5 5 6 7 6 7 13 15 11 9 7 5 4 4
0 1 2 4 7 7 7 7 5 5 6 8 9 9 8 6 4 3 7 11 10 11 16 17 15 12 10 8 7 6 6 6 7 6 7 13 17 16 12 9 8 6 5
1 2 5 8 11 11 8 6 5 6 8 9 10 10 8 6 6 6 9 12 11 11 14 14 15 15 14 11 10 10 10 10 10 9 10 13 19 21 18 15 13 12 11
4 5 8 11 14 15 10 7 6 7 10 11 12 11 9 8 9 10 11 12 11 11 13 13 13 13 12 11 11 12 13 14 14 13 13 15 18 21 21 20 19 19 17
8 9 11 13 16 18 15 11 10 10 13 15 15 14 11 9 9 10 10 9 9 11 14 13 10 8 8 8 10 12 13 15 16 14 15 18 19 18 18 21 23 22 21
13 13 13 16 20 21 19 16 14 14 15 16 16 15 12 9 7 8 8 8 8 10 11 9 7 6 6 7 8 9 11 12 13 14 16 18 18 18 18 21 23 23 21
19 19 18 19 22 22 20 18 16 14 14 14 14 13 13 10 8 8 10 9 9 9 8 7 7 8 9 8 7 7 9 11 13 16 17 16 16 19 22 22 22 20 19
27 26 23 21 21 20 18 18 15 12 10 10 11 12 12 10 9 11 11 10 10 9 9 9 8 8 8 7 7 7 10 14 17 19 20 18 16 17 21 23 24 24 22
37 33 27 24 22 19 17 16 14 11 9 9 12 13 11 8 9 10 11 10 9 10 11 10 9 8 6 5 6 7 10 14 16 18 20 20 17 17 19 22 29 31 31
40 36 32 32 30 22 16 13 11 11 10 9 14 17 14 10 9 11 13 12 10 10 10 10 9 8 7 6 6 9 11 12 13 14 15 15 19 21 20 21 26 32 33
36 38 41 44 39 27 17 12 10 11 10 9 14 19 18 14 12 14 19 20 17 13 10 9 9 10 9 8 9 12 14 15 16 15 12 12 18 22 21 19 22 27 30
31 37 46 51 47 34 21 14 12 12 10 9 12 18 18 17 18 21 24 27 24 19 14 11 11 11 9 9 12 14 15 18 21 19 13 12 16 19 19 19 21 25 28
27 34 44 52 50 39 26 16 14 14 12 9 11 16 17 19 23 25 26 29 27 22 18 14 13 11 9 10 12 14 14 18 22 21 15 13 15 17 18 19 23 26 28